Location: L�Ave Maria
(50.7161°N, 1.5911°E)
Time: 22:15:38
(UTC+00:00)

Meteor 1-26 Rocket - Pass Details

Date: 10 July 2020
Orbit: 811 x 925 km, 81.3° (Epoch: 14 August)

Event Time Altitude Azimuth Distance (km) Brightness Sun altitude
Rises 22:48:33 0° 348° (NNW) 3,579 9.3 -15.6°
Reaches altitude 10° 22:51:04 10° 349° (N) 2,625 8.1 -15.7°
Maximum altitude 22:57:05 79° 77° (ENE) 927 4.4 -15.9°
Enters shadow 23:00:41 25° 162° (SSE) 1,732 5.2 -16.1°
